Погода в Бирзаи

Поиск расширенной информации на нашем сайте:

Полезная информация:

Новости сайта



02.01.2020
Опубликован Долгосрочный прогноз погоды по городам России и ближнего зарубежья на январь 2020 года.
Карты: Прогноз на январь и февраль 2020 года, Сравнение прогнозируемой аномалии приземной температуры воздуха на январь 2020 года по разным моделям.




Погода в Бирзаи - сегодня

Время (UTC), дата Ветер
(°,м/с) 
Видим.   Явления Облачность Т
(°С)
Тd
(°С)
f(%) Тe
(°С)
Pmin
(гПа)
dP
(гПа)
Po
(мм)
O2
(г/м3)
Тmin Tmax R s Состояние
почвы
15 16.04.21 050 (СВ) 5-9{10}  20000 м    8/0 средняя, верхняя 
[Ac trans|Ci sp]
+14.7 +1.8 42 +14  1018  -0.2  758  290           
18 16.04.21 050 (СВ) 4-7{10}  20000 м    9/0 средняя, верхняя 
[Ac As|Cs]
+12.4 +1.9 49 +12  1019.4  1.3  759  292    +15.8       
21 16.04.21 050 (СВ) 5-7{08}  20000 м    6/0 средняя 
[Ac As]
+11.6 +1.3 49 +11  1020.5  1.1  760  293           
00 17.04.21 050 (СВ) 3-6{08}  20000 м    ясно 
+9.8 +0.7 53 +9  1020.6  760  295           
03 17.04.21 050 (СВ) 3-6{06}  20000 м    10/0 средняя 
[Ac As]
+8.8 +1 58 +8  1020.9  0.3  760  297           
06 17.04.21 060 (СВ) 3-5{08}  20000 м    8/0 средняя, верхняя 
[Ac trans|Ci sp]
+10.3 +0.8 52 +10  1021.5  0.7  761  295  +8.2        влажная 
09 17.04.21 050 (СВ) 3-5{08}  20000 м    3/0 средняя 
[Ac cast]
+15 +1.9 41 +15  1021.1  -0.3  760  290           
12 17.04.21 090 (В) 4-6{09}  19000 м    3/0 верхняя 
[Ci sp]
+17.9 +2.8 36 +18  1020.6  -0.4  760  287           
15 17.04.21 060 (СВ) 4-8{09}  20000 м    3/0 средняя, верхняя 
[Ac cast|Ci fib]
+17.9 +2.7 36 +18  1020.4  -0.2  760  287           
18 17.04.21 040 (СВ) 1-3{10}  20000 м    4/0 средняя 
[Ac und]
+13.1 +1.7 46 +14  1021.5  761  292    +18.9       
21 17.04.21 040 (СВ) 1-3{04}  20000 м    ясно <0100 м 
+9.8 +1.3 55 +11  1022.1  0.4  761  296           
00 18.04.21 040 (СВ) 1-2{04}  20000 м    ясно 
+8.1 -0.6 54 +9  1022.4  0.2  761  298           
03 18.04.21 060 (СВ) 1-3{03}  20000 м    3/0 средняя 
[Ac lent]
+6.1 -1.8 57 +7  1022.2  -0.2  761  300           
06 18.04.21 050 (СВ) 4-6{07}  20000 м    8/0 средняя, верхняя 
[Ac trans|Ci fib]
+10.4 -1.5 43 +10  1022.5  0.5  761  296  +6        влажная 
09 18.04.21 050 (СВ) 3-6{08}  20000 м    1/0 верхняя 
[Ci fib]
+16.2 -1.6 30 +17  1021.9  -0.4  761  290           
12 18.04.21 060 (СВ) 3-6{10}  20000 м    ясно 
+19.1 +0.1 28 +20  1021.2  -0.7  760  286           
15 18.04.21 050 (СВ) 4-6{09}  20000 м    ясно <0100 м 
+19 -2.9 22 +19  1020.5  -0.7  760  287           
18 18.04.21 070 (В) 3-4{08}  20000 м    ясно 
+14.2 -4.7 27 +14  1021.8  1.1  761  292    +19.8       
21 18.04.21 060 (СВ) 3-5{06}  20000 м    ясно <0100 м 
+11.3 -4.8 32 +11  1022.6  0.7  761  295           
00 19.04.21 040 (СВ) 1-2{06}  20000 м    ясно 
+5.9 -4.5 47 +7  1022.3  -0.4  761  301           
03 19.04.21 040 (СВ) 2-3{04}  20000 м    ясно 
+4.6 -3.8 54 +4  1022.4  0.1  761  302           
06 19.04.21 060 (СВ) 3-5{07}  20000 м    ясно 
+9.8 -2.6 42 +9  1022.4  0.1  761  296  +4.6        влажная 
09 19.04.21 070 (В) 5-8{08}  20000 м    ясно <0100 м 
+15.5 -2.9 28 +15  1021.9  -0.3  761  290           
12 19.04.21 100 (В) 4-8{10}  17000 м    1/1 1000 м 
[Cu hum]
+17.4 -3.5 24 +18  1021.2  -0.6  760  288           
15 19.04.21 080 (В) 4-6{10}  19000 м    1/1 1500 м 
[Sc diur, vesp]
+17.3 -3.2 24 +18  1020.3  -1  760  288           
Время (UTC), дата Ветер
(°,м/с) 
Видим.   Явления Облачность Т
(°С)
Тd
(°С)
f(%) Тe
(°С)
Pmin
(гПа)
dP
(гПа)
Po
(мм)
O2
(г/м3)
Тmin Tmax R s Состояние
почвы

Для получения пояснительной информации подведите курсор к названию столбца.

ПОГОДА в Бирзаи - архив

Всё, что Вы хотите узнать о погоде в Бирзаи - удобно и подробно!

Выберите нужную дату (начиная с 1 января 2019* года) и нажмите кнопку "Найти".
Будут отображены архивные сводки погоды по пункту Бирзаи, начиная с указанной даты.


Отображать данные в формате CSV (для использования в таблицах Excel)


Внимание! Наш архив погоды предназначен исключительно для личного некоммерческого использования в познавательных целях. Если Вам необходимы официальные справки о состоянии погоды (для производственных, юридических, коммерческих и т.п. целей), обращайтесь в органы Росгидромета.

*Примечание: данная дата относится к архиву по метеостанциям СССР (Россия, СНГ, Балтия).
Архив по метеостанциям Зарубежной Европы и Азии (кроме Китая) хранится 10 дней, по другим регионам земного шара (Китай, Африка, Америка, Австралия, Океания) - 1 день.

Бирзаи - район местоположения метеостанции


Название, широта, долгота, высота метеостанции:
Бирзаи 56.2°ш. 24.8°д. 62 м над ур. моря [Литва]

Дополнительная информация

В oтличие oт бoльшинства пoгoдных сайтoв мы публикуем пoдрoбную метеoинфoрмацию в детальнoм прoфессиoнальнoм фoрмате.

Характеристики температуры и влажнoсти вoздуха измеряются на высoте 2 м в тени вдали oт зданий и деревьев.
Скoрoсть ветра измеряется на высoте 10 м (на урoвне рoста челoвека скoрoсть ветра ниже в 1.5-2 раза). Если метеoстанция нахoдится в гoрoде или в лесу, тo скoрoсть ветра занижена на 2-4 м/с пo сравнению с oткрытым местoм. Скoрoсть ветра над акватoриями крупных рек и oзёр, а также на вершинах хoлмoв на 2-5 м/с выше, чем в oбычных услoвиях.
Атмoсфернoе давление в разных тoчках местнoсти мoжет значительнo oтличаться oт давления на метеoстанции, в зависимoсти oт услoвий рельефа (при пoдъёме на 10 м давление пoнижается примернo на 1 мм рт.ст.).